Starlink 34329

operational
NORAD ID: 64256 Int'l Des: 2025-120 Owner: SPXS Country: US Constellation: starlink
LEOCIRCULAR

Starlink 34329について

説明を読み込み中...

リアルタイム位置

3D地球を読み込み中...

次回通過

高度履歴

Altitude vs Time

uPlot chart will show altitude changes over time

軌道要素

1 64256U 25120A 25261.25011574 .00062865 00000-0 21196-2 0 9992
2 64256 53.1608 197.4925 0001406 86.2715 45.9759 15.30157392 5858
Epoch: Sep 18, 2025 • Age: 20 hours

現在のステータス

高度 477.1 km
速度 7.63 km/s
衛星直下点 35.97°N, 162.03°W
打ち上げ日 Jun 4, 2025
運用期間 0.2 years
タイプ internet

技術仕様

分類 Payload
質量 575.00 kg
乾燥質量 530.00 kg
総質量 575.00 kg
長さ 0.30 m
直径 4.10 m
スパン 29.00 m
形状 Box + pan
製造者 SPXS
バスタイプ Starlink V2MO
フェーズステータス In Orbit
所有者/国 SPXS/US

大規模コンステレーション

Loading constellations...